FW1932 Weather Reports


time (UTC)temp
C
wind
direction
speed
KPH
gust
KPH
rain 1hr
cm
rain 24hr
cm
rain mn
cm
humidity
%
barometer
mb
20260505130107 19 97 0.0 6.4 0.00 0.10 0.03 66 1009.9
20260505124553 19 245 1.6 6.4 0.00 0.10 0.03 68 1010.2
20260505123047 20 240 0.0 1.6 0.00 0.10 0.03 72 1010.3
20260505121543 18 268 0.0 1.6 0.00 0.10 0.03 74 1010.4
20260505120038 18 245 0.0 3.2 0.00 0.10 0.03 72 1010.5
20260505114534 17 240 0.0 3.2 0.00 0.10 0.03 75 1010.6
20260505113030 16 251 0.0 1.6 0.00 0.10 0.03 85 1010.8
20260505111535 15 243 0.0 3.2 0.00 0.10 0.03 84 1011.2
20260505101522 15 254 1.6 4.8 0.00 0.10 0.03 85 1011.4
20260505100027 15 239 1.6 4.8 0.00 0.10 0.03 87 1011.3
20260505094521 15 238 0.0 3.2 0.00 0.10 0.03 87 1011.2
20260505093021 15 235 0.0 3.2 0.00 0.10 0.03 85 1011.2
20260505091520 15 245 0.0 1.6 0.00 0.10 0.03 85 1011.4
20260505090017 14 243 0.0 1.6 0.03 0.10 0.03 87 1011.2
20260505084519 14 245 0.0 1.6 0.03 0.10 0.03 85 1011.2
20260505083014 13 251 0.0 4.8 0.03 0.10 0.03 90 1011.5
20260505081510 13 101 0.0 6.4 0.03 0.10 0.03 91 1011.7
20260505080007 13 252 1.6 8.0 0.00 0.08 0.00 91 1011.7
20260505074506 13 256 1.6 8.0 0.00 0.08 0.00 90 1011.9
20260505073104 13 226 4.8 8.0 0.00 0.08 0.00 89 1012.0
20260505071513 13 243 1.6 6.4 0.00 0.08 0.00 90 1012.0
20260505070001 13 251 3.2 6.4 0.00 0.08 0.00 91 1012.0
20260505064609 12 245 0.0 4.8 0.00 0.08 0.00 93 1012.1
20260505063058 12 247 0.0 3.2 0.00 0.08 0.00 93 1012.3
20260505061601 12 250 0.0 0.0 0.00 0.08 0.00 93 1012.3
20260505060057 12 249 0.0 1.6 0.00 0.08 0.00 94 1012.4
20260505054559 12 246 0.0 3.2 0.00 0.08 0.00 94 1012.3
20260505053104 11 257 0.0 3.2 0.00 0.08 0.00 95 1012.3
20260505051556 11 255 0.0 1.6 0.00 0.08 0.00 95 1012.4
20260505041556 11 252 0.0 0.0 0.00 0.08 0.00 93 1012.1
20260505040053 12 253 0.0 0.0 0.00 0.08 0.00 93 1012.2
20260505034551 12 253 0.0 1.6 0.00 0.08 0.00 92 1012.2
20260505033049 12 254 0.0 1.6 0.00 0.08 0.00 93 1012.3
20260505031549 12 100 0.0 0.0 0.00 0.08 0.00 93 1012.3
20260505030048 12 101 0.0 0.0 0.00 0.08 0.00 92 1012.3
20260505024547 12 100 0.0 1.6 0.00 0.08 0.00 92 1012.3
20260505023051 11 118 0.0 0.0 0.00 0.08 0.00 93 1012.4
20260505021545 11 118 0.0 0.0 0.00 0.08 0.00 93 1012.6
20260505020043 11 118 0.0 0.0 0.00 0.08 0.00 93 1012.8
20260505014541 11 118 0.0 0.0 0.00 0.08 0.00 94 1012.9
20260505013040 11 118 0.0 0.0 0.00 0.08 0.00 94 1013.1
20260505011548 11 118 0.0 0.0 0.00 0.08 0.00 94 1013.2
20260505010038 11 118 0.0 0.0 0.00 0.08 0.00 94 1013.4
20260505004536 11 118 0.0 0.0 0.00 0.08 0.00 93 1013.4
20260505003032 12 118 0.0 0.0 0.00 0.08 0.00 93 1013.8
20260505001531 12 118 0.0 1.6 0.00 0.08 0.00 93 1014.0
20260505000029 12 120 0.0 0.0 0.00 0.08 0.00 93 1014.0
20260504234526 12 120 0.0 0.0 0.00 0.08 0.00 93 1014.1
20260504233025 12 117 0.0 1.6 0.00 0.08 0.00 92 1014.2
20260504231523 12 117 0.0 0.0 0.00 0.08 0.00 92 1014.5
20260504230022 12 79 0.0 4.8 0.00 0.08 0.00 91 1014.5
20260504224521 12 283 0.0 0.0 0.00 0.08 0.00 93 1014.6
20260504223020 12 283 0.0 0.0 0.00 0.08 0.00 93 1014.7
20260504221523 12 302 0.0 0.0 0.00 0.08 0.00 93 1014.8
20260504220021 12 303 0.0 0.0 0.00 0.08 0.00 92 1014.6
20260504214517 12 300 0.0 1.6 0.00 0.08 0.08 92 1014.8
20260504213015 13 300 0.0 1.6 0.00 0.08 0.08 92 1014.6
20260504211516 13 65 0.0 1.6 0.00 0.08 0.08 92 1014.8
20260504210014 13 248 0.0 0.0 0.00 0.08 0.08 93 1015.1
20260504204514 13 248 0.0 0.0 0.00 0.08 0.08 92 1015.3
20260504203014 13 248 0.0 0.0 0.00 0.08 0.08 92 1015.4
20260504201512 13 248 0.0 3.2 0.00 0.08 0.08 91 1015.3
20260504200018 13 248 0.0 3.2 0.00 0.08 0.08 90 1015.3
20260504194511 13 227 0.0 1.6 0.00 0.08 0.08 90 1015.3
20260504193010 13 91 0.0 4.8 0.00 0.08 0.08 90 1014.9
20260504191520 14 74 0.0 3.2 0.00 0.08 0.08 90 1014.8
20260504190011 14 118 0.0 3.2 0.00 0.08 0.08 90 1014.8
20260504184512 14 142 0.0 1.6 0.00 0.08 0.08 89 1014.9
20260504183012 14 252 0.0 1.6 0.00 0.08 0.08 91 1015.1
20260504181507 15 245 0.0 0.0 0.00 0.08 0.08 91 1015.1
20260504180006 15 243 0.0 0.0 0.03 0.08 0.08 91 1015.1
20260504174505 15 243 0.0 0.0 0.05 0.08 0.08 90 1015.3
20260504173004 15 244 0.0 0.0 0.05 0.08 0.08 90 1015.4
20260504171504 15 243 0.0 0.0 0.05 0.08 0.08 89 1015.6